| time (UTC) | temp C | wind direction | speed KPH | gust KPH | rain 1hr cm | rain 24hr cm | rain mn cm | humidity % | barometer mb |
| 20260507151257 | 13 | 257 | 0.0 | 4.8 | 0.00 | 0.13 | 0.10 | 58 | 1011.1 |
| 20260507150240 | 13 | 248 | 0.0 | 1.6 | 0.00 | 0.18 | 0.10 | 59 | 1011.3 |
| 20260507143000 | 12 | 284 | 0.0 | 0.0 | 0.00 | 0.25 | 0.10 | 69 | 1011.7 |
| 20260507142001 | 12 | 284 | 0.0 | 0.0 | 0.00 | 0.30 | 0.10 | 67 | 1011.7 |
| 20260507140957 | 12 | 284 | 0.0 | 0.0 | 0.00 | 0.30 | 0.10 | 70 | 1011.8 |
| 20260507140008 | 12 | 226 | 0.0 | 0.0 | 0.00 | 0.43 | 0.10 | 71 | 1011.8 |
| 20260507135024 | 12 | 226 | 0.0 | 0.0 | 0.00 | 0.51 | 0.10 | 71 | 1011.8 |
| 20260507134011 | 12 | 226 | 0.0 | 0.0 | 0.00 | 0.56 | 0.10 | 73 | 1012.0 |
| 20260507133010 | 12 | 226 | 0.0 | 0.0 | 0.00 | 0.64 | 0.10 | 74 | 1012.1 |
| 20260507131941 | 12 | 226 | 0.0 | 0.0 | 0.00 | 0.76 | 0.10 | 75 | 1011.8 |
| 20260507130951 | 12 | 226 | 0.0 | 0.0 | 0.00 | 0.81 | 0.10 | 76 | 1011.9 |
| 20260507130006 | 12 | 226 | 0.0 | 0.0 | 0.00 | 0.81 | 0.10 | 73 | 1011.6 |
| 20260507125016 | 12 | 222 | 0.0 | 0.0 | 0.00 | 0.81 | 0.10 | 73 | 1011.7 |
| 20260507124003 | 12 | 222 | 0.0 | 0.0 | 0.00 | 0.81 | 0.10 | 73 | 1011.8 |
| 20260507122940 | 12 | 222 | 0.0 | 0.0 | 0.00 | 0.81 | 0.10 | 77 | 1012.0 |
| 20260507121937 | 12 | 333 | 0.0 | 0.0 | 0.00 | 0.86 | 0.10 | 80 | 1011.6 |
| 20260507121001 | 12 | 333 | 0.0 | 1.6 | 0.00 | 0.89 | 0.10 | 82 | 1011.7 |
| 20260507120014 | 12 | 333 | 0.0 | 0.0 | 0.00 | 0.89 | 0.10 | 87 | 1011.6 |
| 20260507115022 | 12 | 333 | 0.0 | 0.0 | 0.00 | 0.89 | 0.10 | 87 | 1011.4 |
| 20260507114018 | 12 | 333 | 0.0 | 1.6 | 0.00 | 0.89 | 0.10 | 86 | 1011.3 |
| 20260507112958 | 12 | 333 | 0.0 | 0.0 | 0.00 | 0.89 | 0.10 | 90 | 1011.2 |
| 20260507111937 | 12 | 333 | 0.0 | 0.0 | 0.00 | 0.89 | 0.10 | 89 | 1011.3 |
| 20260507110930 | 12 | 333 | 0.0 | 0.0 | 0.00 | 0.89 | 0.10 | 89 | 1011.1 |
| 20260507105922 | 12 | 333 | 0.0 | 0.0 | 0.00 | 0.89 | 0.10 | 89 | 1011.2 |
| 20260507104852 | 12 | 343 | 0.0 | 0.0 | 0.00 | 0.89 | 0.10 | 90 | 1011.1 |
| 20260507103838 | 12 | 343 | 0.0 | 0.0 | 0.00 | 0.89 | 0.10 | 90 | 1010.9 |
| 20260507102813 | 12 | 343 | 0.0 | 0.0 | 0.00 | 0.89 | 0.10 | 90 | 1010.8 |
| 20260507100650 | 12 | 343 | 0.0 | 0.0 | 0.00 | 0.89 | 0.10 | 90 | 1010.7 |
| 20260507095715 | 12 | 343 | 0.0 | 0.0 | 0.00 | 0.89 | 0.10 | 90 | 1010.5 |
| 20260507094728 | 12 | 343 | 0.0 | 0.0 | 0.00 | 0.89 | 0.10 | 89 | 1010.6 |
| 20260507093714 | 12 | 343 | 0.0 | 0.0 | 0.00 | 0.89 | 0.10 | 89 | 1010.6 |
| 20260507092738 | 12 | 343 | 0.0 | 0.0 | 0.00 | 0.89 | 0.10 | 88 | 1010.5 |
| 20260507091742 | 12 | 343 | 0.0 | 0.0 | 0.00 | 0.89 | 0.10 | 89 | 1010.1 |
| 20260507090747 | 12 | 343 | 0.0 | 0.0 | 0.00 | 0.89 | 0.10 | 89 | 1010.3 |
| 20260507085714 | 12 | 343 | 0.0 | 0.0 | 0.00 | 0.89 | 0.10 | 88 | 1010.5 |
| 20260507084700 | 13 | 343 | 0.0 | 0.0 | 0.00 | 0.89 | 0.10 | 89 | 1010.2 |
| 20260507083706 | 13 | 343 | 0.0 | 0.0 | 0.00 | 0.89 | 0.10 | 90 | 1010.2 |
| 20260507080416 | 13 | 343 | 0.0 | 0.0 | 0.00 | 0.89 | 0.10 | 91 | 1009.6 |
| 20260507075437 | 13 | 343 | 0.0 | 0.0 | 0.00 | 0.89 | 0.10 | 91 | 1009.6 |
| 20260507074427 | 13 | 343 | 0.0 | 0.0 | 0.00 | 0.89 | 0.10 | 91 | 1009.5 |
| 20260507072333 | 13 | 343 | 0.0 | 0.0 | 0.00 | 0.89 | 0.10 | 90 | 1009.3 |
| 20260507071306 | 13 | 343 | 0.0 | 0.0 | 0.00 | 0.89 | 0.10 | 91 | 1009.4 |
| 20260507065146 | 13 | 343 | 0.0 | 0.0 | 0.00 | 0.89 | 0.10 | 90 | 1009.3 |
| 20260507064154 | 13 | 343 | 0.0 | 0.0 | 0.00 | 0.89 | 0.10 | 90 | 1009.4 |
| 20260507063122 | 13 | 343 | 0.0 | 0.0 | 0.00 | 0.89 | 0.10 | 91 | 1009.5 |
| 20260507062054 | 13 | 343 | 0.0 | 0.0 | 0.00 | 0.89 | 0.10 | 90 | 1009.3 |
| 20260507061032 | 13 | 343 | 0.0 | 0.0 | 0.00 | 0.89 | 0.10 | 90 | 1009.3 |
| 20260507060044 | 13 | 343 | 0.0 | 0.0 | 0.00 | 0.89 | 0.10 | 90 | 1009.2 |
| 20260507055106 | 13 | 343 | 0.0 | 0.0 | 0.00 | 0.89 | 0.10 | 89 | 1009.4 |
| 20260507054112 | 13 | 342 | 0.0 | 0.0 | 0.00 | 0.89 | 0.10 | 89 | 1009.4 |
| 20260507053055 | 14 | 342 | 0.0 | 0.0 | 0.00 | 0.86 | 0.08 | 89 | 1009.5 |
| 20260507052037 | 14 | 342 | 0.0 | 0.0 | 0.00 | 0.86 | 0.08 | 88 | 1009.2 |
| 20260507045914 | 15 | 334 | 0.0 | 0.0 | 0.00 | 0.86 | 0.08 | 85 | 1009.5 |
| 20260507044927 | 15 | 334 | 0.0 | 1.6 | 0.00 | 0.86 | 0.08 | 85 | 1009.7 |
| 20260507043940 | 16 | 343 | 0.0 | 6.4 | 0.20 | 0.86 | 0.08 | 83 | 1009.5 |
| 20260507042916 | 16 | 304 | 0.0 | 0.0 | 0.33 | 0.84 | 0.05 | 83 | 1009.6 |
| 20260507041929 | 17 | 304 | 0.0 | 0.0 | 0.00 | 0.79 | 0.00 | 80 | 1009.6 |
| 20260507040903 | 17 | 304 | 0.0 | 0.0 | 0.00 | 0.79 | 0.00 | 78 | 1009.3 |
| 20260507035838 | 17 | 304 | 0.0 | 0.0 | 0.00 | 0.79 | 0.79 | 77 | 1009.3 |
| 20260507033629 | 17 | 304 | 0.0 | 6.4 | 0.00 | 0.79 | 0.79 | 73 | 1009.0 |
| 20260507030421 | 18 | 329 | 0.0 | 1.6 | 0.00 | 0.79 | 0.79 | 73 | 1008.5 |
| 20260507025353 | 18 | 16 | 0.0 | 9.7 | 0.00 | 0.79 | 0.79 | 72 | 1008.4 |
| 20260507023221 | 18 | 355 | 1.6 | 8.0 | 0.00 | 0.79 | 0.79 | 74 | 1008.5 |
| 20260507022235 | 18 | 350 | 0.0 | 8.0 | 0.00 | 0.79 | 0.79 | 76 | 1008.2 |
| 20260507021216 | 19 | 351 | 0.0 | 0.0 | 0.00 | 0.79 | 0.79 | 78 | 1008.2 |
| 20260507020239 | 19 | 351 | 1.6 | 8.0 | 0.00 | 0.79 | 0.79 | 76 | 1008.0 |
| 20260507014201 | 20 | 0 | 0.0 | 6.4 | 0.00 | 0.79 | 0.79 | 79 | 1007.8 |
| 20260507013159 | 20 | 262 | 0.0 | 0.0 | 0.00 | 0.79 | 0.79 | 81 | 1008.0 |
| 20260507012131 | 20 | 262 | 0.0 | 0.0 | 0.00 | 0.79 | 0.79 | 81 | 1008.1 |
| 20260507011102 | 20 | 262 | 0.0 | 0.0 | 0.00 | 0.79 | 0.79 | 81 | 1008.0 |
| 20260507003931 | 20 | 262 | 0.0 | 0.0 | 0.00 | 0.79 | 0.79 | 79 | 1007.7 |
| 20260507002923 | 20 | 262 | 0.0 | 0.0 | 0.00 | 0.79 | 0.79 | 78 | 1007.7 |
| 20260507001919 | 21 | 262 | 0.0 | 0.0 | 0.00 | 0.79 | 0.79 | 78 | 1007.5 |
| 20260507000921 | 21 | 262 | 0.0 | 0.0 | 0.00 | 0.79 | 0.79 | 77 | 1007.5 |
| 20260506234725 | 21 | 262 | 0.0 | 0.0 | 0.00 | 0.79 | 0.79 | 76 | 1007.4 |
| 20260506232618 | 21 | 262 | 0.0 | 4.8 | 0.00 | 0.79 | 0.79 | 74 | 1007.1 |
| 20260506231615 | 21 | 240 | 0.0 | 4.8 | 0.00 | 0.79 | 0.79 | 75 | 1007.0 |
| 20260506230553 | 21 | 240 | 0.0 | 1.6 | 0.00 | 0.79 | 0.79 | 74 | 1007.0 |
| 20260506225557 | 21 | 190 | 0.0 | 6.4 | 0.00 | 0.79 | 0.79 | 74 | 1006.9 |
| 20260506224534 | 21 | 277 | 0.0 | 1.6 | 0.00 | 0.79 | 0.79 | 74 | 1006.8 |
| 20260506223554 | 21 | 222 | 1.6 | 11.3 | 0.00 | 0.79 | 0.79 | 73 | 1006.8 |
| 20260506222601 | 21 | 212 | 1.6 | 17.7 | 0.00 | 0.79 | 0.79 | 73 | 1006.8 |
| 20260506221554 | 22 | 207 | 6.4 | 17.7 | 0.00 | 0.79 | 0.79 | 72 | 1006.6 |
| 20260506220609 | 22 | 246 | 3.2 | 14.5 | 0.00 | 0.79 | 0.79 | 72 | 1006.6 |
| 20260506215548 | 22 | 192 | 4.8 | 17.7 | 0.00 | 0.79 | 0.79 | 72 | 1006.7 |
| 20260506214551 | 22 | 245 | 4.8 | 20.9 | 0.00 | 0.79 | 0.79 | 73 | 1006.7 |
| 20260506213546 | 22 | 267 | 6.4 | 20.9 | 0.00 | 0.79 | 0.79 | 73 | 1006.7 |
| 20260506212600 | 22 | 230 | 4.8 | 19.3 | 0.00 | 0.79 | 0.79 | 72 | 1006.7 |
| 20260506211528 | 22 | 271 | 6.4 | 19.3 | 0.00 | 0.79 | 0.79 | 71 | 1006.6 |
| 20260506210516 | 22 | 265 | 6.4 | 14.5 | 0.00 | 0.79 | 0.79 | 71 | 1006.6 |
| 20260506205450 | 22 | 167 | 6.4 | 19.3 | 0.00 | 0.79 | 0.79 | 71 | 1006.0 |
| 20260506204458 | 22 | 241 | 4.8 | 19.3 | 0.00 | 0.79 | 0.79 | 71 | 1006.3 |
| 20260506203447 | 22 | 213 | 4.8 | 17.7 | 0.00 | 0.79 | 0.79 | 71 | 1006.1 |
| 20260506202433 | 22 | 257 | 8.0 | 17.7 | 0.00 | 0.79 | 0.79 | 72 | 1006.2 |
| 20260506201402 | 22 | 196 | 6.4 | 16.1 | 0.00 | 0.79 | 0.79 | 71 | 1006.3 |
| 20260506200425 | 21 | 286 | 8.0 | 20.9 | 0.00 | 0.79 | 0.79 | 73 | 1006.4 |
| 20260506195437 | 21 | 124 | 8.0 | 20.9 | 0.00 | 0.79 | 0.79 | 72 | 1006.4 |
| 20260506194415 | 21 | 196 | 8.0 | 20.9 | 0.00 | 0.79 | 0.79 | 72 | 1006.4 |
| 20260506193355 | 21 | 209 | 9.7 | 27.4 | 0.00 | 0.79 | 0.79 | 73 | 1006.5 |
| 20260506192416 | 21 | 207 | 8.0 | 27.4 | 0.00 | 0.79 | 0.79 | 74 | 1006.4 |
| 20260506190312 | 21 | 259 | 8.0 | 22.5 | 0.00 | 0.79 | 0.79 | 75 | 1006.7 |
| 20260506185250 | 20 | 222 | 4.8 | 22.5 | 0.00 | 0.79 | 0.79 | 75 | 1006.8 |
| 20260506184216 | 20 | 203 | 4.8 | 22.5 | 0.00 | 0.79 | 0.79 | 76 | 1006.8 |
| 20260506183213 | 20 | 238 | 4.8 | 19.3 | 0.00 | 0.79 | 0.79 | 77 | 1006.9 |
| 20260506182224 | 20 | 197 | 8.0 | 20.9 | 0.00 | 0.79 | 0.79 | 75 | 1007.0 |
| 20260506180137 | 20 | 162 | 6.4 | 17.7 | 0.00 | 0.79 | 0.79 | 76 | 1007.3 |
| 20260506175103 | 20 | 240 | 6.4 | 24.1 | 0.00 | 0.79 | 0.79 | 78 | 1007.2 |
| 20260506171843 | 19 | 277 | 6.4 | 29.0 | 0.00 | 0.79 | 0.79 | 80 | 1007.4 |
| 20260506165658 | 18 | 182 | 8.0 | 27.4 | 0.00 | 0.79 | 0.79 | 81 | 1007.5 |
| 20260506164707 | 18 | 212 | 8.0 | 24.1 | 0.00 | 0.79 | 0.79 | 83 | 1007.5 |
| 20260506163658 | 18 | 190 | 8.0 | 24.1 | 0.00 | 0.79 | 0.79 | 85 | 1007.5 |
| 20260506162652 | 18 | 271 | 8.0 | 29.0 | 0.00 | 0.79 | 0.79 | 87 | 1007.7 |
| 20260506161632 | 17 | 229 | 9.7 | 29.0 | 0.00 | 0.79 | 0.79 | 89 | 1007.6 |
| 20260506160647 | 17 | 172 | 8.0 | 32.2 | 0.00 | 0.79 | 0.79 | 90 | 1007.8 |
| 20260506155705 | 17 | 246 | 9.7 | 37.0 | 0.00 | 0.79 | 0.79 | 90 | 1007.7 |
| 20260506154652 | 17 | 161 | 9.7 | 37.0 | 0.00 | 0.79 | 0.79 | 90 | 1007.7 |
| 20260506153641 | 16 | 243 | 8.0 | 22.5 | 0.10 | 0.79 | 0.79 | 91 | 1008.0 |
| 20260506152702 | 16 | 153 | 8.0 | 27.4 | 0.10 | 0.79 | 0.79 | 91 | 1008.1 |
| 20260506151651 | 16 | 228 | 8.0 | 27.4 | 0.23 | 0.74 | 0.76 | 91 | 1008.0 |